Private Wetterstation Sandau
Wetterdaten: Samstag, 03.03.2012
Datum Zeit Temp. A. Feuchte A. Luftdruck Regen Wind Richtung Richtung Taupunkt Windchill
03.03.2012 00:02 2,6 C 88 % 1030,7 hPa 0,0 l/m 0,0 km/h (0 Bft) O-NO 67 0,8 C 2,6 C
03.03.2012 00:07 2,6 C 88 % 1030,7 hPa 0,0 l/m 0,0 km/h (0 Bft) O-NO 67 0,8 C 2,6 C
03.03.2012 00:12 2,6 C 88 % 1030,8 hPa 0,0 l/m 0,0 km/h (0 Bft) O-NO 67 0,8 C 2,6 C
03.03.2012 00:17 2,7 C 89 % 1030,6 hPa 0,0 l/m 0,0 km/h (0 Bft) O-NO 67 1,1 C 2,7 C
03.03.2012 00:22 2,8 C 89 % 1030,6 hPa 0,0 l/m 0,0 km/h (0 Bft) O-NO 67 1,2 C 2,8 C
03.03.2012 00:27 2,8 C 89 % 1030,5 hPa 0,0 l/m 0,0 km/h (0 Bft) O-NO 67 1,2 C 2,8 C
03.03.2012 00:32 2,7 C 89 % 1030,4 hPa 0,0 l/m 0,0 km/h (0 Bft) O-NO 67 1,1 C 2,7 C
03.03.2012 00:37 2,6 C 88 % 1030,5 hPa 0,0 l/m 0,0 km/h (0 Bft) O-NO 67 0,8 C 2,6 C
03.03.2012 00:42 2,5 C 88 % 1030,4 hPa 0,0 l/m 0,0 km/h (0 Bft) O-NO 67 0,7 C 2,5 C
03.03.2012 00:47 2,4 C 88 % 1030,4 hPa 0,0 l/m 0,0 km/h (0 Bft) O-NO 67 0,6 C 2,4 C
03.03.2012 00:52 2,4 C 88 % 1030,5 hPa 0,0 l/m 0,0 km/h (0 Bft) O-NO 67 0,6 C 2,4 C
03.03.2012 00:57 2,4 C 88 % 1030,4 hPa 0,0 l/m 0,0 km/h (0 Bft) O-NO 67 0,6 C 2,4 C
03.03.2012 01:02 2,3 C 88 % 1030,5 hPa 0,0 l/m 0,0 km/h (0 Bft) O-NO 67 0,5 C 2,3 C
03.03.2012 01:07 2,3 C 88 % 1030,7 hPa 0,0 l/m 0,0 km/h (0 Bft) O-NO 67 0,5 C 2,3 C
03.03.2012 01:12 2,2 C 88 % 1030,5 hPa 0,0 l/m 0,0 km/h (0 Bft) O-NO 67 0,4 C 2,2 C
03.03.2012 01:17 2,0 C 88 % 1030,8 hPa 0,0 l/m 1,4 km/h (1 Bft) O-NO 67 0,2 C 2,0 C
03.03.2012 01:22 1,9 C 88 % 1030,6 hPa 0,0 l/m 2,2 km/h (1 Bft) O 90 0,1 C 1,9 C
03.03.2012 01:27 1,8 C 88 % 1030,5 hPa 0,0 l/m 3,6 km/h (1 Bft) O-SO 112 0,0 C 1,8 C
03.03.2012 01:32 1,6 C 88 % 1030,5 hPa 0,0 l/m 1,4 km/h (1 Bft) O-SO 112 -0,2 C 1,6 C
03.03.2012 01:37 1,4 C 89 % 1030,4 hPa 0,0 l/m 2,5 km/h (1 Bft) O 90 -0,2 C 1,4 C
03.03.2012 01:42 1,3 C 89 % 1030,4 hPa 0,0 l/m 2,2 km/h (1 Bft) O 90 -0,3 C 1,3 C
03.03.2012 01:47 1,3 C 89 % 1030,3 hPa 0,0 l/m 2,2 km/h (1 Bft) O-NO 67 -0,3 C 1,3 C
03.03.2012 01:52 1,3 C 89 % 1030,3 hPa 0,0 l/m 6,1 km/h (2 Bft) O-SO 112 -0,3 C -0,6 C
03.03.2012 01:57 1,2 C 89 % 1030,2 hPa 0,0 l/m 3,6 km/h (1 Bft) O-NO 67 -0,4 C 1,2 C
03.03.2012 02:02 1,1 C 89 % 1030,1 hPa 0,0 l/m 2,2 km/h (1 Bft) O-NO 67 -0,5 C 1,1 C
03.03.2012 02:07 0,9 C 90 % 1030,1 hPa 0,0 l/m 5,8 km/h (2 Bft) O-NO 67 -0,6 C -0,9 C
03.03.2012 02:12 0,9 C 90 % 1030,1 hPa 0,0 l/m 2,9 km/h (1 Bft) O-SO 112 -0,6 C 0,9 C
03.03.2012 02:17 0,8 C 90 % 1030,0 hPa 0,0 l/m 2,2 km/h (1 Bft) O 90 -0,6 C 0,8 C
03.03.2012 02:22 0,8 C 90 % 1030,1 hPa 0,0 l/m 1,1 km/h (1 Bft) O 90 -0,6 C 0,8 C
03.03.2012 02:27 0,7 C 90 % 1030,2 hPa 0,0 l/m 0,0 km/h (0 Bft) O-SO 112 -0,7 C 0,7 C
03.03.2012 02:32 0,8 C 90 % 1029,9 hPa 0,0 l/m 2,2 km/h (1 Bft) SO 135 -0,6 C 0,8 C
03.03.2012 02:37 0,9 C 91 % 1029,8 hPa 0,0 l/m 2,2 km/h (1 Bft) SO 135 -0,4 C 0,9 C
03.03.2012 02:42 0,9 C 91 % 1029,9 hPa 0,0 l/m 0,0 km/h (0 Bft) SO 135 -0,4 C 0,9 C
03.03.2012 02:47 0,8 C 91 % 1029,9 hPa 0,0 l/m 1,1 km/h (1 Bft) SO 135 -0,5 C 0,8 C
03.03.2012 02:52 0,8 C 91 % 1030,0 hPa 0,0 l/m 1,4 km/h (1 Bft) SO 135 -0,5 C 0,8 C
03.03.2012 02:57 0,9 C 91 % 1030,0 hPa 0,0 l/m 1,1 km/h (1 Bft) SO 135 -0,4 C 0,9 C
03.03.2012 03:02 0,9 C 91 % 1030,0 hPa 0,0 l/m 0,0 km/h (0 Bft) O-SO 112 -0,4 C 0,9 C
03.03.2012 03:07 0,9 C 91 % 1030,0 hPa 0,0 l/m 1,4 km/h (1 Bft) O-SO 112 -0,4 C 0,9 C
03.03.2012 03:12 0,7 C 91 % 1030,1 hPa 0,0 l/m 0,0 km/h (0 Bft) O-SO 112 -0,6 C 0,7 C
03.03.2012 03:17 0,6 C 91 % 1030,0 hPa 0,0 l/m 1,4 km/h (1 Bft) O-SO 112 -0,7 C 0,6 C
03.03.2012 03:22 0,5 C 91 % 1029,8 hPa 0,0 l/m 4,0 km/h (1 Bft) SO 135 -0,8 C 0,5 C
03.03.2012 03:27 0,5 C 91 % 1029,8 hPa 0,0 l/m 5,4 km/h (1 Bft) O-SO 112 -0,8 C -1,2 C
03.03.2012 03:32 0,4 C 91 % 1030,0 hPa 0,0 l/m 3,6 km/h (1 Bft) O-SO 112 -0,9 C 0,4 C
03.03.2012 03:37 0,4 C 91 % 1029,9 hPa 0,0 l/m 5,4 km/h (1 Bft) O 90 -0,9 C -1,3 C
03.03.2012 03:42 0,3 C 91 % 1029,9 hPa 0,0 l/m 0,0 km/h (0 Bft) O 90 -1,0 C 0,3 C
03.03.2012 03:47 0,2 C 91 % 1029,9 hPa 0,0 l/m 5,0 km/h (1 Bft) O 90 -1,1 C -1,4 C
03.03.2012 03:52 0,1 C 91 % 1029,8 hPa 0,0 l/m 2,9 km/h (1 Bft) O-NO 67 -1,2 C 0,1 C
03.03.2012 03:57 0,1 C 91 % 1029,8 hPa 0,0 l/m 4,0 km/h (1 Bft) O-NO 67 -1,2 C 0,1 C
03.03.2012 04:02 0,1 C 91 % 1030,0 hPa 0,0 l/m 3,2 km/h (1 Bft) O-SO 112 -1,2 C 0,1 C
03.03.2012 04:07 0,1 C 91 % 1029,8 hPa 0,0 l/m 4,3 km/h (1 Bft) O 90 -1,2 C 0,1 C
03.03.2012 04:12 -0,1 C 91 % 1029,8 hPa 0,0 l/m 2,5 km/h (1 Bft) O 90 -1,4 C -0,1 C
03.03.2012 04:17 -0,1 C 91 % 1029,8 hPa 0,0 l/m 4,0 km/h (1 Bft) O 90 -1,4 C -0,1 C
03.03.2012 04:22 -0,2 C 91 % 1029,7 hPa 0,0 l/m 4,0 km/h (1 Bft) O-NO 67 -1,5 C -0,2 C
03.03.2012 04:27 -0,2 C 91 % 1029,8 hPa 0,0 l/m 2,9 km/h (1 Bft) O 90 -1,5 C -0,2 C
03.03.2012 04:32 -0,2 C 91 % 1029,6 hPa 0,0 l/m 3,6 km/h (1 Bft) O-NO 67 -1,5 C -0,2 C
03.03.2012 04:37 -0,2 C 91 % 1029,8 hPa 0,0 l/m 4,0 km/h (1 Bft) O-NO 67 -1,5 C -0,2 C
03.03.2012 04:42 -0,2 C 91 % 1029,6 hPa 0,0 l/m 6,8 km/h (2 Bft) O 90 -1,5 C -2,6 C
03.03.2012 04:47 -0,2 C 91 % 1029,7 hPa 0,0 l/m 4,3 km/h (1 Bft) O 90 -1,5 C -0,2 C
03.03.2012 04:52 -0,1 C 91 % 1029,6 hPa 0,0 l/m 3,2 km/h (1 Bft) O-SO 112 -1,4 C -0,1 C
03.03.2012 04:57 -0,1 C 91 % 1029,5 hPa 0,0 l/m 5,4 km/h (1 Bft) O 90 -1,4 C -1,9 C
03.03.2012 05:02 0,0 C 91 % 1029,5 hPa 0,0 l/m 4,0 km/h (1 Bft) O 90 -1,3 C 0,0 C
03.03.2012 05:07 0,1 C 91 % 1029,5 hPa 0,0 l/m 7,6 km/h (2 Bft) O 90 -1,2 C -2,5 C
03.03.2012 05:12 0,1 C 91 % 1029,5 hPa 0,0 l/m 7,2 km/h (2 Bft) SO 135 -1,2 C -2,4 C
03.03.2012 05:17 0,1 C 91 % 1029,4 hPa 0,0 l/m 3,6 km/h (1 Bft) O-SO 112 -1,2 C 0,1 C
03.03.2012 05:22 0,1 C 91 % 1029,4 hPa 0,0 l/m 6,1 km/h (2 Bft) O 90 -1,2 C -1,9 C
03.03.2012 05:27 0,2 C 91 % 1029,4 hPa 0,0 l/m 4,7 km/h (1 Bft) O 90 -1,1 C -1,2 C
03.03.2012 05:32 0,2 C 91 % 1029,3 hPa 0,0 l/m 6,5 km/h (2 Bft) O-SO 112 -1,1 C -2,0 C
03.03.2012 05:37 0,2 C 91 % 1029,3 hPa 0,0 l/m 5,8 km/h (2 Bft) SO 135 -1,1 C -1,7 C
03.03.2012 05:42 0,2 C 90 % 1029,4 hPa 0,0 l/m 5,0 km/h (1 Bft) O-NO 67 -1,2 C -1,4 C
03.03.2012 05:47 0,1 C 90 % 1029,4 hPa 0,0 l/m 6,1 km/h (2 Bft) O-NO 67 -1,3 C -1,9 C
03.03.2012 05:52 0,1 C 90 % 1029,5 hPa 0,0 l/m 6,1 km/h (2 Bft) O 90 -1,3 C -1,9 C
03.03.2012 05:57 0,1 C 90 % 1029,5 hPa 0,0 l/m 7,2 km/h (2 Bft) O 90 -1,3 C -2,4 C
03.03.2012 06:02 0,1 C 90 % 1029,3 hPa 0,0 l/m 7,6 km/h (2 Bft) O 90 -1,3 C -2,5 C
03.03.2012 06:07 0,1 C 90 % 1029,4 hPa 0,0 l/m 7,2 km/h (2 Bft) O-SO 112 -1,3 C -2,4 C
03.03.2012 06:12 0,1 C 90 % 1029,4 hPa 0,0 l/m 8,3 km/h (2 Bft) O 90 -1,3 C -2,7 C
03.03.2012 06:17 0,0 C 90 % 1029,4 hPa 0,0 l/m 5,8 km/h (2 Bft) O 90 -1,4 C -1,9 C
03.03.2012 06:22 -0,1 C 90 % 1029,5 hPa 0,0 l/m 7,2 km/h (2 Bft) O 90 -1,5 C -2,6 C
03.03.2012 06:27 -0,1 C 90 % 1029,2 hPa 0,0 l/m 6,1 km/h (2 Bft) SO 135 -1,5 C -2,2 C
03.03.2012 06:32 -0,1 C 89 % 1029,4 hPa 0,0 l/m 4,0 km/h (1 Bft) SO 135 -1,7 C -0,1 C
03.03.2012 06:37 -0,1 C 89 % 1029,3 hPa 0,0 l/m 6,1 km/h (2 Bft) O-SO 112 -1,7 C -2,2 C
03.03.2012 06:42 -0,1 C 89 % 1029,4 hPa 0,0 l/m 6,5 km/h (2 Bft) O 90 -1,7 C -2,3 C
03.03.2012 06:47 -0,1 C 89 % 1029,4 hPa 0,0 l/m 6,8 km/h (2 Bft) O 90 -1,7 C -2,4 C
03.03.2012 06:52 -0,1 C 89 % 1029,5 hPa 0,0 l/m 3,2 km/h (1 Bft) O-SO 112 -1,7 C -0,1 C
03.03.2012 06:57 -0,2 C 89 % 1029,4 hPa 0,0 l/m 8,6 km/h (2 Bft) O 90 -1,8 C -3,2 C
03.03.2012 07:02 -0,2 C 89 % 1029,4 hPa 0,0 l/m 5,4 km/h (1 Bft) O-SO 112 -1,8 C -2,0 C
03.03.2012 07:07 -0,2 C 89 % 1029,4 hPa 0,0 l/m 5,8 km/h (2 Bft) O 90 -1,8 C -2,2 C
03.03.2012 07:12 -0,2 C 89 % 1029,6 hPa 0,0 l/m 6,8 km/h (2 Bft) O-NO 67 -1,8 C -2,6 C
03.03.2012 07:17 -0,2 C 89 % 1029,3 hPa 0,0 l/m 8,6 km/h (2 Bft) O 90 -1,8 C -3,2 C
03.03.2012 07:22 -0,2 C 89 % 1029,3 hPa 0,0 l/m 7,2 km/h (2 Bft) O 90 -1,8 C -2,7 C
03.03.2012 07:27 -0,2 C 89 % 1029,4 hPa 0,0 l/m 4,3 km/h (1 Bft) O-NO 67 -1,8 C -0,2 C
03.03.2012 07:32 -0,2 C 89 % 1029,3 hPa 0,0 l/m 7,6 km/h (2 Bft) O-NO 67 -1,8 C -2,8 C
03.03.2012 07:37 -0,2 C 89 % 1029,5 hPa 0,0 l/m 7,2 km/h (2 Bft) O-SO 112 -1,8 C -2,7 C
03.03.2012 07:42 -0,2 C 89 % 1029,4 hPa 0,0 l/m 2,9 km/h (1 Bft) O-NO 67 -1,8 C -0,2 C
03.03.2012 07:47 -0,2 C 89 % 1029,5 hPa 0,0 l/m 4,0 km/h (1 Bft) SO 135 -1,8 C -0,2 C
03.03.2012 07:52 -0,2 C 89 % 1029,4 hPa 0,0 l/m 4,0 km/h (1 Bft) O-SO 112 -1,8 C -0,2 C
03.03.2012 07:57 -0,1 C 89 % 1029,5 hPa 0,0 l/m 4,0 km/h (1 Bft) O-NO 67 -1,7 C -0,1 C
03.03.2012 08:02 -0,1 C 89 % 1029,5 hPa 0,0 l/m 6,1 km/h (2 Bft) O 90 -1,7 C -2,2 C
03.03.2012 08:07 -0,1 C 89 % 1029,7 hPa 0,0 l/m 9,4 km/h (2 Bft) O-SO 112 -1,7 C -3,3 C
03.03.2012 08:12 0,0 C 90 % 1029,5 hPa 0,0 l/m 6,8 km/h (2 Bft) O 90 -1,4 C -2,3 C
03.03.2012 08:17 0,1 C 89 % 1029,4 hPa 0,0 l/m 5,0 km/h (1 Bft) O-SO 112 -1,5 C -1,5 C
03.03.2012 08:22 0,1 C 89 % 1029,7 hPa 0,0 l/m 8,3 km/h (2 Bft) O 90 -1,5 C -2,7 C
03.03.2012 08:27 0,2 C 89 % 1029,5 hPa 0,0 l/m 9,4 km/h (2 Bft) O 90 -1,4 C -2,9 C
03.03.2012 08:32 0,3 C 89 % 1029,7 hPa 0,0 l/m 4,3 km/h (1 Bft) O 90 -1,3 C 0,3 C
03.03.2012 08:37 0,4 C 89 % 1029,7 hPa 0,0 l/m 7,2 km/h (2 Bft) O-SO 112 -1,2 C -2,0 C
03.03.2012 08:42 0,5 C 89 % 1029,7 hPa 0,0 l/m 5,0 km/h (1 Bft) O-SO 112 -1,1 C -1,0 C
03.03.2012 08:47 0,6 C 89 % 1029,6 hPa 0,0 l/m 9,4 km/h (2 Bft) SO 135 -1,0 C -2,4 C
03.03.2012 08:52 0,9 C 89 % 1029,6 hPa 0,0 l/m 7,2 km/h (2 Bft) O-SO 112 -0,7 C -1,4 C
03.03.2012 08:57 0,9 C 89 % 1029,6 hPa 0,0 l/m 4,0 km/h (1 Bft) O-SO 112 -0,7 C 0,9 C
03.03.2012 09:02 1,1 C 89 % 1029,5 hPa 0,0 l/m 5,8 km/h (2 Bft) O 90 -0,5 C -0,7 C
03.03.2012 09:07 1,2 C 89 % 1029,6 hPa 0,0 l/m 5,8 km/h (2 Bft) O 90 -0,4 C -0,6 C
03.03.2012 09:12 1,3 C 89 % 1029,6 hPa 0,0 l/m 4,7 km/h (1 Bft) SO 135 -0,3 C 0,0 C
03.03.2012 09:17 1,4 C 89 % 1029,6 hPa 0,0 l/m 11,9 km/h (2 Bft) O-SO 112 -0,2 C -2,1 C
03.03.2012 09:22 1,6 C 88 % 1029,5 hPa 0,0 l/m 6,5 km/h (2 Bft) O-SO 112 -0,2 C -0,4 C
03.03.2012 09:27 1,9 C 88 % 1029,6 hPa 0,0 l/m 4,3 km/h (1 Bft) O-SO 112 0,1 C 1,9 C
03.03.2012 09:32 2,1 C 88 % 1029,6 hPa 0,0 l/m 7,2 km/h (2 Bft) SO 135 0,3 C -0,0 C
03.03.2012 09:37 2,2 C 88 % 1029,7 hPa 0,0 l/m 6,5 km/h (2 Bft) O-SO 112 0,4 C 0,3 C
03.03.2012 09:42 2,4 C 87 % 1029,5 hPa 0,0 l/m 7,9 km/h (2 Bft) O-SO 112 0,5 C 0,1 C
03.03.2012 09:47 2,5 C 87 % 1029,7 hPa 0,0 l/m 11,5 km/h (2 Bft) O 90 0,6 C -0,7 C
03.03.2012 09:52 2,5 C 87 % 1029,5 hPa 0,0 l/m 8,3 km/h (2 Bft) O 90 0,6 C 0,1 C
03.03.2012 09:57 2,6 C 87 % 1029,4 hPa 0,0 l/m 6,5 km/h (2 Bft) O-SO 112 0,7 C 0,8 C
03.03.2012 10:02 2,8 C 87 % 1029,5 hPa 0,0 l/m 14,4 km/h (3 Bft) O 90 0,9 C -0,9 C
03.03.2012 10:07 2,9 C 87 % 1029,5 hPa 0,0 l/m 7,6 km/h (2 Bft) SO 135 1,0 C 0,8 C
03.03.2012 10:12 3,2 C 86 % 1029,6 hPa 0,0 l/m 15,1 km/h (3 Bft) O-SO 112 1,1 C -0,5 C
03.03.2012 10:17 3,3 C 86 % 1029,4 hPa 0,0 l/m 5,8 km/h (2 Bft) SO 135 1,2 C 1,8 C
03.03.2012 10:22 3,4 C 86 % 1029,7 hPa 0,0 l/m 3,6 km/h (1 Bft) S-SO 157 1,3 C 3,4 C
03.03.2012 10:27 3,6 C 85 % 1029,4 hPa 0,0 l/m 9,4 km/h (2 Bft) SO 135 1,3 C 1,1 C
03.03.2012 10:32 3,9 C 85 % 1029,5 hPa 0,0 l/m 8,3 km/h (2 Bft) SO 135 1,6 C 1,8 C
03.03.2012 10:37 4,1 C 84 % 1029,4 hPa 0,0 l/m 10,8 km/h (2 Bft) SO 135 1,6 C 1,4 C
03.03.2012 10:42 4,2 C 82 % 1029,3 hPa 0,0 l/m 9,0 km/h (2 Bft) SO 135 1,4 C 1,9 C
03.03.2012 10:47 4,3 C 81 % 1029,4 hPa 0,0 l/m 5,8 km/h (2 Bft) SO 135 1,3 C 3,0 C
03.03.2012 10:52 4,5 C 81 % 1029,3 hPa 0,0 l/m 11,5 km/h (2 Bft) SO 135 1,5 C 1,7 C
03.03.2012 10:57 4,6 C 80 % 1029,3 hPa 0,0 l/m 7,6 km/h (2 Bft) O 90 1,5 C 2,8 C
03.03.2012 11:02 4,8 C 77 % 1029,3 hPa 0,0 l/m 18,7 km/h (3 Bft) SO 135 1,1 C 1,0 C
03.03.2012 11:07 4,9 C 77 % 1029,4 hPa 0,0 l/m 8,6 km/h (2 Bft) O 90 1,2 C 2,9 C
03.03.2012 11:12 5,1 C 75 % 1029,2 hPa 0,0 l/m 7,9 km/h (2 Bft) O-SO 112 1,0 C 3,3 C
03.03.2012 11:17 5,2 C 74 % 1029,2 hPa 0,0 l/m 7,9 km/h (2 Bft) SO 135 1,0 C 3,4 C
03.03.2012 11:22 5,3 C 74 % 1029,2 hPa 0,0 l/m 6,1 km/h (2 Bft) SO 135 1,0 C 4,0 C
03.03.2012 11:27 5,6 C 73 % 1029,0 hPa 0,0 l/m 9,4 km/h (2 Bft) SO 135 1,2 C 3,5 C
03.03.2012 11:32 5,8 C 72 % 1029,0 hPa 0,0 l/m 9,7 km/h (2 Bft) SO 135 1,2 C 3,7 C
03.03.2012 11:37 5,9 C 71 % 1029,1 hPa 0,0 l/m 10,1 km/h (2 Bft) O-SO 112 1,1 C 3,7 C
03.03.2012 11:42 6,1 C 70 % 1029,0 hPa 0,0 l/m 5,0 km/h (1 Bft) SO 135 1,0 C 5,3 C
03.03.2012 11:47 6,1 C 69 % 1028,7 hPa 0,0 l/m 14,8 km/h (3 Bft) SO 135 0,8 C 3,1 C
03.03.2012 11:52 6,3 C 69 % 1028,6 hPa 0,0 l/m 14,4 km/h (3 Bft) O-SO 112 1,0 C 3,4 C
03.03.2012 11:57 6,5 C 67 % 1028,7 hPa 0,0 l/m 10,1 km/h (2 Bft) SO 135 0,8 C 4,4 C
03.03.2012 12:02 6,7 C 64 % 1028,9 hPa 0,0 l/m 10,8 km/h (2 Bft) NO 45 0,4 C 4,5 C
03.03.2012 12:07 6,8 C 63 % 1028,8 hPa 0,0 l/m 27,7 km/h (4 Bft) SO 135 0,3 C 2,6 C
03.03.2012 12:12 6,9 C 62 % 1028,7 hPa 0,0 l/m 6,8 km/h (2 Bft) SO 135 0,1 C 5,7 C
03.03.2012 12:17 7,1 C 61 % 1028,7 hPa 0,0 l/m 17,3 km/h (3 Bft) SO 135 0,1 C 4,0 C
03.03.2012 12:22 7,2 C 60 % 1028,7 hPa 0,0 l/m 7,9 km/h (2 Bft) O-SO 112 -0,0 C 5,7 C
03.03.2012 12:27 7,3 C 58 % 1028,7 hPa 0,0 l/m 11,2 km/h (2 Bft) SO 135 -0,4 C 5,2 C
03.03.2012 12:32 7,4 C 56 % 1028,7 hPa 0,0 l/m 10,8 km/h (2 Bft) S-SO 157 -0,8 C 5,4 C
03.03.2012 12:37 7,5 C 56 % 1028,6 hPa 0,0 l/m 16,6 km/h (3 Bft) O-SO 112 -0,7 C 4,6 C
03.03.2012 12:42 7,6 C 54 % 1028,5 hPa 0,0 l/m 16,9 km/h (3 Bft) O-SO 112 -1,1 C 4,7 C
03.03.2012 12:47 7,6 C 55 % 1028,6 hPa 0,0 l/m 7,6 km/h (2 Bft) O-SO 112 -0,9 C 6,3 C
03.03.2012 12:52 7,8 C 55 % 1028,4 hPa 0,0 l/m 6,1 km/h (2 Bft) SO 135 -0,7 C 6,9 C
03.03.2012 12:57 7,9 C 55 % 1028,3 hPa 0,0 l/m 13,7 km/h (3 Bft) O-SO 112 -0,6 C 5,5 C
03.03.2012 13:02 7,9 C 53 % 1028,3 hPa 0,0 l/m 19,4 km/h (3 Bft) SO 135 -1,1 C 4,8 C
03.03.2012 13:07 8,1 C 54 % 1028,3 hPa 0,0 l/m 11,5 km/h (2 Bft) O-SO 112 -0,6 C 6,1 C
03.03.2012 13:12 8,1 C 54 % 1028,2 hPa 0,0 l/m 13,3 km/h (3 Bft) O-SO 112 -0,6 C 5,8 C
03.03.2012 13:17 8,3 C 54 % 1028,2 hPa 0,0 l/m 14,4 km/h (3 Bft) O-SO 112 -0,5 C 5,9 C
03.03.2012 13:22 8,4 C 53 % 1028,0 hPa 0,0 l/m 14,4 km/h (3 Bft) O-SO 112 -0,6 C 6,0 C
03.03.2012 13:27 8,4 C 52 % 1028,0 hPa 0,0 l/m 12,6 km/h (3 Bft) O 90 -0,9 C 6,3 C
03.03.2012 13:32 8,6 C 50 % 1028,0 hPa 0,0 l/m 19,1 km/h (3 Bft) SO 135 -1,2 C 5,7 C
03.03.2012 13:37 8,6 C 51 % 1027,9 hPa 0,0 l/m 16,2 km/h (3 Bft) S-SO 157 -1,0 C 6,0 C
03.03.2012 13:42 8,8 C 50 % 1027,8 hPa 0,0 l/m 7,2 km/h (2 Bft) SO 135 -1,0 C 7,8 C
03.03.2012 13:47 8,9 C 49 % 1028,0 hPa 0,0 l/m 5,0 km/h (1 Bft) O-SO 112 -1,2 C 8,5 C
03.03.2012 13:52 8,9 C 49 % 1028,0 hPa 0,0 l/m 12,2 km/h (2 Bft) O 90 -1,2 C 7,0 C
03.03.2012 13:57 8,9 C 49 % 1027,9 hPa 0,0 l/m 18,4 km/h (3 Bft) O-SO 112 -1,2 C 6,2 C
03.03.2012 14:02 8,9 C 46 % 1027,6 hPa 0,0 l/m 10,1 km/h (2 Bft) O-SO 112 -2,1 C 7,3 C
03.03.2012 14:07 9,0 C 45 % 1027,7 hPa 0,0 l/m 10,4 km/h (2 Bft) O-SO 112 -2,3 C 7,4 C
03.03.2012 14:12 9,1 C 46 % 1027,7 hPa 0,0 l/m 9,7 km/h (2 Bft) S-SO 157 -1,9 C 7,6 C
03.03.2012 14:17 9,2 C 47 % 1027,6 hPa 0,0 l/m 5,4 km/h (1 Bft) O-SO 112 -1,5 C 8,7 C
03.03.2012 14:22 9,3 C 47 % 1027,6 hPa 0,0 l/m 12,6 km/h (3 Bft) SO 135 -1,4 C 7,4 C
03.03.2012 14:27 9,3 C 45 % 1027,4 hPa 0,0 l/m 23,4 km/h (4 Bft) O-SO 112 -2,0 C 6,2 C
03.03.2012 14:32 9,3 C 45 % 1027,4 hPa 0,0 l/m 20,5 km/h (4 Bft) SO 135 -2,0 C 6,4 C
03.03.2012 14:37 9,4 C 44 % 1027,3 hPa 0,0 l/m 13,3 km/h (3 Bft) SO 135 -2,2 C 7,4 C
03.03.2012 14:42 9,5 C 44 % 1027,4 hPa 0,0 l/m 9,4 km/h (2 Bft) O-SO 112 -2,1 C 8,1 C
03.03.2012 14:47 9,5 C 43 % 1027,4 hPa 0,0 l/m 13,0 km/h (3 Bft) O-SO 112 -2,4 C 7,6 C
03.03.2012 14:52 9,5 C 43 % 1027,2 hPa 0,0 l/m 14,0 km/h (3 Bft) SO 135 -2,4 C 7,4 C
03.03.2012 14:57 9,4 C 43 % 1027,3 hPa 0,0 l/m 16,9 km/h (3 Bft) O-NO 67 -2,5 C 6,9 C
03.03.2012 15:02 9,5 C 44 % 1027,3 hPa 0,0 l/m 9,7 km/h (2 Bft) O-SO 112 -2,1 C 8,1 C
03.03.2012 15:07 9,5 C 44 % 1027,3 hPa 0,0 l/m 7,6 km/h (2 Bft) SO 135 -2,1 C 8,5 C
03.03.2012 15:12 9,4 C 44 % 1027,0 hPa 0,0 l/m 9,0 km/h (2 Bft) O-SO 112 -2,2 C 8,1 C
03.03.2012 15:17 9,3 C 42 % 1027,0 hPa 0,0 l/m 16,9 km/h (3 Bft) S-SO 157 -2,9 C 6,8 C
03.03.2012 15:22 9,3 C 42 % 1026,9 hPa 0,0 l/m 16,2 km/h (3 Bft) SO 135 -2,9 C 6,9 C
03.03.2012 15:27 9,3 C 42 % 1026,9 hPa 0,0 l/m 18,4 km/h (3 Bft) O 90 -2,9 C 6,7 C
03.03.2012 15:32 9,3 C 43 % 1026,9 hPa 0,0 l/m 15,8 km/h (3 Bft) O 90 -2,6 C 7,0 C
03.03.2012 15:37 9,2 C 43 % 1026,9 hPa 0,0 l/m 5,8 km/h (2 Bft) O 90 -2,7 C 8,6 C
03.03.2012 15:42 9,1 C 41 % 1026,8 hPa 0,0 l/m 5,0 km/h (1 Bft) SO 135 -3,4 C 8,7 C
03.03.2012 15:47 9,0 C 43 % 1026,8 hPa 0,0 l/m 9,0 km/h (2 Bft) O-SO 112 -2,9 C 7,6 C
03.03.2012 15:52 9,1 C 44 % 1026,8 hPa 0,0 l/m 10,8 km/h (2 Bft) S-SO 157 -2,5 C 7,4 C
03.03.2012 15:57 8,9 C 44 % 1026,8 hPa 0,0 l/m 14,0 km/h (3 Bft) O-SO 112 -2,7 C 6,7 C
03.03.2012 16:02 8,9 C 44 % 1026,7 hPa 0,0 l/m 14,0 km/h (3 Bft) O 90 -2,7 C 6,7 C
03.03.2012 16:07 8,9 C 45 % 1026,9 hPa 0,0 l/m 8,3 km/h (2 Bft) SO 135 -2,4 C 7,7 C
03.03.2012 16:12 8,8 C 45 % 1026,8 hPa 0,0 l/m 9,4 km/h (2 Bft) O 90 -2,5 C 7,3 C
03.03.2012 16:17 8,7 C 46 % 1026,7 hPa 0,0 l/m 7,2 km/h (2 Bft) O-SO 112 -2,3 C 7,7 C
03.03.2012 16:22 8,6 C 47 % 1026,8 hPa 0,0 l/m 10,8 km/h (2 Bft) O-SO 112 -2,1 C 6,8 C
03.03.2012 16:27 8,6 C 47 % 1026,6 hPa 0,0 l/m 8,6 km/h (2 Bft) SO 135 -2,1 C 7,2 C
03.03.2012 16:32 8,6 C 47 % 1026,5 hPa 0,0 l/m 7,9 km/h (2 Bft) O 90 -2,1 C 7,4 C
03.03.2012 16:37 8,6 C 46 % 1026,5 hPa 0,0 l/m 15,5 km/h (3 Bft) SO 135 -2,4 C 6,1 C
03.03.2012 16:42 8,4 C 46 % 1026,5 hPa 0,0 l/m 12,6 km/h (3 Bft) SO 135 -2,5 C 6,3 C
03.03.2012 16:47 8,4 C 47 % 1026,5 hPa 0,0 l/m 13,0 km/h (3 Bft) S-SO 157 -2,2 C 6,2 C
03.03.2012 16:52 8,3 C 47 % 1026,5 hPa 0,0 l/m 14,4 km/h (3 Bft) SO 135 -2,3 C 5,9 C
03.03.2012 16:57 8,2 C 48 % 1026,5 hPa 0,0 l/m 4,0 km/h (1 Bft) O-SO 112 -2,1 C 8,2 C
03.03.2012 17:02 8,1 C 48 % 1026,6 hPa 0,0 l/m 8,3 km/h (2 Bft) O-NO 67 -2,2 C 6,7 C
03.03.2012 17:07 8,1 C 49 % 1026,7 hPa 0,0 l/m 9,7 km/h (2 Bft) SO 135 -2,0 C 6,4 C
03.03.2012 17:12 7,9 C 49 % 1026,6 hPa 0,0 l/m 5,0 km/h (1 Bft) S-SO 157 -2,1 C 7,4 C
03.03.2012 17:17 7,9 C 50 % 1026,5 hPa 0,0 l/m 6,1 km/h (2 Bft) O 90 -1,9 C 7,0 C
03.03.2012 17:22 7,8 C 51 % 1026,5 hPa 0,0 l/m 4,7 km/h (1 Bft) O 90 -1,7 C 7,4 C
03.03.2012 17:27 7,6 C 51 % 1026,6 hPa 0,0 l/m 5,8 km/h (2 Bft) SO 135 -1,9 C 6,8 C
03.03.2012 17:32 7,5 C 51 % 1026,4 hPa 0,0 l/m 9,4 km/h (2 Bft) SO 135 -2,0 C 5,8 C
03.03.2012 17:37 7,4 C 51 % 1026,5 hPa 0,0 l/m 10,8 km/h (2 Bft) O-SO 112 -2,1 C 5,4 C
03.03.2012 17:42 7,3 C 51 % 1026,3 hPa 0,0 l/m 7,6 km/h (2 Bft) SO 135 -2,2 C 5,9 C
03.03.2012 17:47 7,2 C 52 % 1026,6 hPa 0,0 l/m 8,3 km/h (2 Bft) O-SO 112 -2,0 C 5,6 C
03.03.2012 17:52 7,2 C 51 % 1026,6 hPa 0,0 l/m 10,8 km/h (2 Bft) SO 135 -2,2 C 5,1 C
03.03.2012 17:57 7,1 C 52 % 1026,8 hPa 0,0 l/m 8,3 km/h (2 Bft) O-NO 67 -2,1 C 5,5 C
03.03.2012 18:02 6,9 C 53 % 1026,6 hPa 0,0 l/m 5,8 km/h (2 Bft) SO 135 -2,0 C 6,0 C
03.03.2012 18:07 6,9 C 53 % 1026,6 hPa 0,0 l/m 5,8 km/h (2 Bft) O-SO 112 -2,0 C 6,0 C
03.03.2012 18:12 6,8 C 54 % 1026,6 hPa 0,0 l/m 2,9 km/h (1 Bft) O-SO 112 -1,8 C 6,8 C
03.03.2012 18:17 6,6 C 54 % 1026,7 hPa 0,0 l/m 0,0 km/h (0 Bft) O 90 -2,0 C 6,6 C
03.03.2012 18:22 6,6 C 54 % 1026,8 hPa 0,0 l/m 4,0 km/h (1 Bft) O 90 -2,0 C 6,6 C
03.03.2012 18:27 6,4 C 54 % 1026,7 hPa 0,0 l/m 5,0 km/h (1 Bft) O-SO 112 -2,2 C 5,7 C
03.03.2012 18:32 6,4 C 55 % 1026,9 hPa 0,0 l/m 6,1 km/h (2 Bft) O 90 -2,0 C 5,3 C
03.03.2012 18:37 6,4 C 56 % 1026,9 hPa 0,0 l/m 8,3 km/h (2 Bft) O 90 -1,7 C 4,7 C
03.03.2012 18:42 6,3 C 56 % 1027,0 hPa 0,0 l/m 4,0 km/h (1 Bft) O 90 -1,8 C 6,3 C
03.03.2012 18:47 6,2 C 57 % 1027,0 hPa 0,0 l/m 7,2 km/h (2 Bft) O 90 -1,7 C 4,8 C
03.03.2012 18:52 6,2 C 57 % 1027,2 hPa 0,0 l/m 3,6 km/h (1 Bft) SO 135 -1,7 C 6,2 C
03.03.2012 18:57 6,1 C 58 % 1027,1 hPa 0,0 l/m 3,2 km/h (1 Bft) S-SO 157 -1,5 C 6,1 C
03.03.2012 19:02 5,9 C 58 % 1027,1 hPa 0,0 l/m 3,6 km/h (1 Bft) O 90 -1,7 C 5,9 C
03.03.2012 19:07 5,9 C 58 % 1027,2 hPa 0,0 l/m 4,0 km/h (1 Bft) O 90 -1,7 C 5,9 C
03.03.2012 19:12 5,7 C 59 % 1027,2 hPa 0,0 l/m 9,4 km/h (2 Bft) O 90 -1,7 C 3,6 C
03.03.2012 19:17 5,6 C 60 % 1027,3 hPa 0,0 l/m 5,0 km/h (1 Bft) SO 135 -1,5 C 4,8 C
03.03.2012 19:22 5,5 C 60 % 1027,3 hPa 0,0 l/m 5,8 km/h (2 Bft) SO 135 -1,6 C 4,4 C
03.03.2012 19:27 5,4 C 60 % 1027,3 hPa 0,0 l/m 7,6 km/h (2 Bft) O 90 -1,7 C 3,7 C
03.03.2012 19:32 5,3 C 61 % 1027,1 hPa 0,0 l/m 8,3 km/h (2 Bft) O 90 -1,6 C 3,4 C
03.03.2012 19:37 5,2 C 61 % 1027,2 hPa 0,0 l/m 2,5 km/h (1 Bft) O-NO 67 -1,7 C 5,2 C
03.03.2012 19:42 5,2 C 61 % 1027,2 hPa 0,0 l/m 2,5 km/h (1 Bft) O 90 -1,7 C 5,2 C
03.03.2012 19:47 5,1 C 61 % 1027,3 hPa 0,0 l/m 9,7 km/h (2 Bft) O-SO 112 -1,8 C 2,8 C
03.03.2012 19:52 5,0 C 61 % 1027,3 hPa 0,0 l/m 9,0 km/h (2 Bft) O-SO 112 -1,9 C 2,9 C
03.03.2012 19:57 4,9 C 62 % 1027,2 hPa 0,0 l/m 5,8 km/h (2 Bft) O-SO 112 -1,8 C 3,7 C
03.03.2012 20:02 4,9 C 62 % 1027,2 hPa 0,0 l/m 4,3 km/h (1 Bft) O 90 -1,8 C 4,9 C
03.03.2012 20:07 4,8 C 62 % 1027,2 hPa 0,0 l/m 5,0 km/h (1 Bft) O-SO 112 -1,9 C 3,9 C
03.03.2012 20:12 4,8 C 63 % 1027,2 hPa 0,0 l/m 5,8 km/h (2 Bft) O-SO 112 -1,6 C 3,6 C
03.03.2012 20:17 4,7 C 63 % 1027,3 hPa 0,0 l/m 7,2 km/h (2 Bft) O 90 -1,7 C 3,0 C
03.03.2012 20:22 4,6 C 63 % 1027,3 hPa 0,0 l/m 6,8 km/h (2 Bft) O 90 -1,8 C 3,0 C
03.03.2012 20:27 4,6 C 64 % 1027,2 hPa 0,0 l/m 3,6 km/h (1 Bft) SO 135 -1,6 C 4,6 C
03.03.2012 20:32 4,6 C 64 % 1027,2 hPa 0,0 l/m 7,2 km/h (2 Bft) O-SO 112 -1,6 C 2,9 C
03.03.2012 20:37 4,5 C 64 % 1027,1 hPa 0,0 l/m 6,1 km/h (2 Bft) O-SO 112 -1,7 C 3,1 C
03.03.2012 20:42 4,5 C 64 % 1026,8 hPa 0,0 l/m 3,6 km/h (1 Bft) O-SO 112 -1,7 C 4,5 C
03.03.2012 20:47 4,5 C 64 % 1026,8 hPa 0,0 l/m 8,6 km/h (2 Bft) O 90 -1,7 C 2,4 C
03.03.2012 20:52 4,5 C 64 % 1026,9 hPa 0,0 l/m 7,2 km/h (2 Bft) O-SO 112 -1,7 C 2,8 C
03.03.2012 20:57 4,5 C 64 % 1026,9 hPa 0,0 l/m 7,2 km/h (2 Bft) O 90 -1,7 C 2,8 C
03.03.2012 21:02 4,5 C 64 % 1027,0 hPa 0,0 l/m 5,0 km/h (1 Bft) SO 135 -1,7 C 3,5 C
03.03.2012 21:07 4,5 C 64 % 1027,0 hPa 0,0 l/m 3,6 km/h (1 Bft) O-SO 112 -1,7 C 4,5 C
03.03.2012 21:12 4,5 C 64 % 1027,0 hPa 0,0 l/m 4,7 km/h (1 Bft) O 90 -1,7 C 3,6 C
03.03.2012 21:17 4,5 C 64 % 1027,1 hPa 0,0 l/m 6,8 km/h (2 Bft) O 90 -1,7 C 2,9 C
03.03.2012 21:22 4,5 C 64 % 1027,0 hPa 0,0 l/m 6,5 km/h (2 Bft) O 90 -1,7 C 3,0 C
03.03.2012 21:27 4,5 C 64 % 1027,0 hPa 0,0 l/m 7,6 km/h (2 Bft) O-SO 112 -1,7 C 2,7 C
03.03.2012 21:32 4,4 C 64 % 1027,0 hPa 0,0 l/m 4,3 km/h (1 Bft) SO 135 -1,8 C 4,4 C
03.03.2012 21:37 4,4 C 64 % 1027,0 hPa 0,0 l/m 6,5 km/h (2 Bft) O 90 -1,8 C 2,9 C
03.03.2012 21:42 4,3 C 64 % 1027,0 hPa 0,0 l/m 8,6 km/h (2 Bft) O 90 -1,9 C 2,2 C
03.03.2012 21:47 4,3 C 64 % 1027,1 hPa 0,0 l/m 10,8 km/h (2 Bft) O 90 -1,9 C 1,6 C
03.03.2012 21:52 4,3 C 64 % 1027,1 hPa 0,0 l/m 4,7 km/h (1 Bft) O 90 -1,9 C 3,4 C
03.03.2012 21:57 4,2 C 64 % 1027,1 hPa 0,0 l/m 9,4 km/h (2 Bft) O-SO 112 -2,0 C 1,8 C
03.03.2012 22:02 4,2 C 64 % 1027,2 hPa 0,0 l/m 10,1 km/h (2 Bft) O-SO 112 -2,0 C 1,7 C
03.03.2012 22:07 4,2 C 64 % 1027,1 hPa 0,0 l/m 6,5 km/h (2 Bft) O-SO 112 -2,0 C 2,6 C
03.03.2012 22:12 4,1 C 64 % 1027,1 hPa 0,0 l/m 10,4 km/h (2 Bft) O-SO 112 -2,1 C 1,5 C
03.03.2012 22:17 4,1 C 64 % 1027,1 hPa 0,0 l/m 11,9 km/h (2 Bft) O 90 -2,1 C 1,2 C
03.03.2012 22:22 4,1 C 64 % 1027,2 hPa 0,0 l/m 5,0 km/h (1 Bft) O 90 -2,1 C 3,1 C
03.03.2012 22:27 4,1 C 64 % 1027,2 hPa 0,0 l/m 11,5 km/h (2 Bft) O-SO 112 -2,1 C 1,3 C
03.03.2012 22:32 4,1 C 64 % 1027,2 hPa 0,0 l/m 6,1 km/h (2 Bft) O 90 -2,1 C 2,7 C
03.03.2012 22:37 4,1 C 64 % 1027,3 hPa 0,0 l/m 5,4 km/h (1 Bft) SO 135 -2,1 C 2,9 C
03.03.2012 22:42 4,1 C 64 % 1027,3 hPa 0,0 l/m 11,9 km/h (2 Bft) O 90 -2,1 C 1,2 C
03.03.2012 22:47 4,1 C 64 % 1027,1 hPa 0,0 l/m 8,3 km/h (2 Bft) O-SO 112 -2,1 C 2,0 C
03.03.2012 22:52 4,1 C 64 % 1027,2 hPa 0,0 l/m 5,0 km/h (1 Bft) SO 135 -2,1 C 3,1 C
03.03.2012 22:57 4,1 C 64 % 1027,1 hPa 0,0 l/m 7,2 km/h (2 Bft) O-NO 67 -2,1 C 2,3 C
03.03.2012 23:02 4,1 C 64 % 1027,3 hPa 0,0 l/m 12,6 km/h (3 Bft) O 90 -2,1 C 1,1 C
03.03.2012 23:07 4,0 C 64 % 1027,2 hPa 0,0 l/m 7,2 km/h (2 Bft) O-SO 112 -2,2 C 2,2 C
03.03.2012 23:12 3,9 C 63 % 1027,2 hPa 0,0 l/m 8,3 km/h (2 Bft) O-NO 67 -2,5 C 1,8 C
03.03.2012 23:17 3,9 C 63 % 1027,3 hPa 0,0 l/m 6,1 km/h (2 Bft) O-SO 112 -2,5 C 2,4 C
03.03.2012 23:22 3,9 C 63 % 1027,1 hPa 0,0 l/m 8,6 km/h (2 Bft) SO 135 -2,5 C 1,7 C
03.03.2012 23:27 3,9 C 63 % 1027,2 hPa 0,0 l/m 6,1 km/h (2 Bft) O-SO 112 -2,5 C 2,4 C
03.03.2012 23:32 3,9 C 63 % 1027,1 hPa 0,0 l/m 7,9 km/h (2 Bft) O 90 -2,5 C 1,9 C
03.03.2012 23:37 3,9 C 63 % 1027,2 hPa 0,0 l/m 11,5 km/h (2 Bft) O 90 -2,5 C 1,0 C
03.03.2012 23:42 3,9 C 63 % 1027,1 hPa 0,0 l/m 9,7 km/h (2 Bft) O-SO 112 -2,5 C 1,4 C
03.03.2012 23:47 3,8 C 63 % 1027,2 hPa 0,0 l/m 11,5 km/h (2 Bft) SO 135 -2,6 C 0,9 C
03.03.2012 23:52 3,8 C 63 % 1027,1 hPa 0,0 l/m 15,8 km/h (3 Bft) O-SO 112 -2,6 C 0,1 C
03.03.2012 23:57 3,8 C 63 % 1027,1 hPa 0,0 l/m 7,6 km/h (2 Bft) SO 135 -2,6 C 1,8 C
_ Min-Zeit 04:22 15:42 17:42 - 00:02 - - 15:42 08:07
Minimum _ -0,2 C 41 % 1026,3 hPa - 0,0 km/h (0 Bft) - - -3,4 C -3,3 C
_ Max-Zeit 14:42 02:37 00:12 00:02 12:07 - - 10:37 15:42
Maximum _ 9,5 C 91 % 1030,8 hPa 0,0 l/m 27,7 km/h
SO (4 Bft)
- - 1,6 C 8,7 C
Durchschnitt _ 4,0 C 71 % 1028,5 hPa #0,0 l/m 7,2 km/h (2 Bft) O-SO - -1,1 C 2,6 C
(c) by David Heller